Location: Bishop�s Knoyle
(51.0728°N, 2.1714°W)
Time: 01:59:52
(UTC+00:00)

Nauka - Pass Details

Date: 26 September 2021
Orbit: 417 x 423 km, 51.6° (Epoch: 26 October)

Event Time Altitude Azimuth Distance (km) Brightness Sun altitude
Rises 20:32:48 0° 283° (WNW) 2,368 ? -24.2°
Reaches altitude 10° 20:34:54 10° 281° (W) 1,504 ? -24.5°
Enters shadow 20:36:51 31° 272° (W) 758 ? -24.8°
